Regional Weather Roundup
Issued by NWS

Home | Current Version | Previous Version | Graphics & Text | Print | Product List | Glossary On
Versions: 1 2 3 4 5 6 7 8 9 10 11 12 13 14 15 16 17 18 19 20 21 22 23 24 25 26 27 28 29 30 31 32 33 34 35 36 37 38 39 40 41 42 43 44 45 46 47 48 49 50
000
ASUS45 KABQ 270501
RWRNM
WEATHER ROUNDUP FOR NEW MEXICO
NATIONAL WEATHER SERVICE ALBUQUERQUE NM
1000 PM MST WED NOV 26 2014

NOTE: "FAIR" MEANS FEW OR NO CLOUDS BELOW 12,000 FEET AGL WITH NO
       SIGNIFICANT WEATHER OR OBSTRUCTIONS TO VISION.

      THIS PRODUCT IS RELEASED AS TWO VERSIONS.  ONE VERSION NEAR
      THE TOP OF THE HOUR CONTAINING PRELIMINARY DATA FROM ALBUQUERQUE
      AND OTHER STATIONS.  A FINAL VERSION WITH ADDITIONAL DATA IS
      ISSUED ABOUT 10 MINUTES AFTER THE HOUR.

NMZ501-503-504-510>518-270600-
NORTHWEST PLATEAU/NORTHCENTRAL MOUNTAINS

CITY           SKY/WX    TMP DP  RH WIND       PRES   REMARKS
FARMINGTON     CLEAR     40  20  44 W3        30.41R
SANTA FE       PTCLDY    38  20  48 N12       30.40S WCI  30
TAOS           CLEAR     28  21  74 N3        30.45R

$$
NMZ402-403-502-505>509-270600-
WESTCENTRAL MOUNTAINS/SOUTHWEST MOUNTAINS

CITY           SKY/WX    TMP DP  RH WIND       PRES   REMARKS
GALLUP         CLEAR     26   9  48 CALM      30.47R
SILVER CITY    CLEAR     39  18  41 N13       30.38S WCI  32

$$
NMZ407-409-411-412-270600-
SOUTHERN DESERTS

CITY           SKY/WX    TMP DP  RH WIND       PRES   REMARKS
DEMING         CLEAR     40  18  41 CALM      30.34R
HOLLOMAN AFB   CLEAR     40  20  43 N8        30.32R
T OR C         CLEAR     43  20  39 CALM      30.36R

$$
NMZ519>523-270600-
CENTRAL VALLEYS/CENTRAL HIGHLANDS

CITY           SKY/WX    TMP DP  RH WIND       PRES   REMARKS
ALBUQUERQUE    PTCLDY    49  23  36 NW5       30.41R
DOUBLE EAGLE   PTCLDY    45  22  41 N8        30.43R
MORIARTY ARPT  FAIR      33  22  63 W6        30.41S WCI  28
CLINES CORNERS PTCLDY    35  21  56 W18       30.38R WCI  24
BELEN          FAIR      37  20  50 N5        30.41R WCI  33
SOCORRO        NOT AVBL

$$
NMZ524>526-539-540-270600-
SOUTHCENTRAL MOUNTAINS

CITY           SKY/WX    TMP DP  RH WIND       PRES   REMARKS
RUIDOSO        CLEAR     46  19  34 NW9       30.42R

$$
NMZ527>531-270600-
NORTHEAST HIGHLANDS/NORTHEAST PLAINS

CITY           SKY/WX    TMP DP  RH WIND       PRES   REMARKS
LAS VEGAS      PTCLDY    38  21  50 CALM      30.38R
RATON          PTCLDY    31  21  66 N5        30.34R WCI  26
CLAYTON        PTCLDY    31  23  72 SW8       30.35S WCI  23

$$
NMZ532>537-270600-
EASTCENTRAL PLAINS

CITY           SKY/WX    TMP DP  RH WIND       PRES   REMARKS
TUCUMCARI      CLEAR     32  25  75 E7        30.36R WCI  26
CANNON AFB     PTCLDY    36  25  65 E7        30.37R WCI  30
CLOVIS AIRPORT PTCLDY    32  21  64 E7        30.38R WCI  26

$$
NMZ028-029-538-270600-
SOUTHEAST PLAINS

CITY           SKY/WX    TMP DP  RH WIND       PRES   REMARKS
ROSWELL        CLEAR     42  26  53 S9        30.34R
CARLSBAD       CLEAR     46  26  45 S9        30.34R
HOBBS          CLEAR     39  28  65 CALM      30.37R


$$


USA.gov is the U.S. government's official web portal to all federal, state and local government web resources and services.